Weather Roundup
Issued by NWS Chicago, IL

Home | Current Version | Previous Version | Graphics & Text | Print | Product List | Glossary On
Versions: 1 2 3 4 5 6 7 8 9 10 11 12 13 14 15 16 17 18 19 20 21 22 23 24 25 26 27 28 29 30 31 32 33 34 35 36 37 38 39 40 41 42 43 44 45 46 47 48 49 50
000
NZUS59 KLOT 240308
HRRLOT

CHICAGO AREA WEATHER ROUNDUP
NATIONAL WEATHER SERVICE CHICAGO/ROMEOVILLE IL
1000 PM CDT TUE AUG 23 2016

NOTE: "FAIR" INDICATES FEW OR NO CLOUDS BELOW 12,000 FEET WITH NO
SIGNIFICANT WEATHER AND/OR OBSTRUCTIONS TO VISIBILITY.

* THESE STATIONS ARE NOT UNDER NWS QUALITY CONTROL. THEY ALSO MAY NOT
  REPORT WEATHER SUCH AS PRECIPITATION OR FOG.

ILZ005-006-012>014-019>023-240400-
NORTHEAST ILLINOIS

CITY           SKY/WX    TMP DP  RH WIND       PRES   REMARKS
OHARE          MOCLDY    74  62  66 S13       30.10S
MIDWAY         MOCLDY    76  61  59 S10       30.10F
AURORA         CLOUDY    74  65  73 SE10      30.09F
LANSING*       MOCLDY    71  62  71 S7        30.12F
JOLIET*        CLOUDY    74  66  76 S6        30.10F
WAUKEGAN       PTCLDY    73  61  65 S8        30.09S
DUPAGE AIRPORT CLOUDY    74  63  68 S10       30.09S
WHEELING       CLOUDY    75  61  61 S12       30.11S
KANKAKEE*      CLOUDY    71  65  81 SE6       30.12F
MORRIS*        CLOUDY    73  66  78 S7        30.08F
LEWIS AIRPORT* CLOUDY    72  62  70 S9        30.10F
NORTHERLY ISL    N/A     73  60  63 S9          N/A
$$

WIZ051-052-058>065-066-070>072-240400-
SOUTHEAST WISCONSIN

CITY           SKY/WX    TMP DP  RH WIND       PRES   REMARKS
MILWAUKEE      PTCLDY    73  60  63 S9        30.08F
KENOSHA*       PTCLDY    72  61  68 S8        30.09S
RACINE*        PTCLDY    73  62  68 S8        30.10F
BURLINGTON     CLOUDY    70  60  72 S5        30.09S
WAUKESHA       PTCLDY    70  59  68 S8        30.10S
$$

INZ001>003-010>013-019-020-240400-
NORTHWEST INDIANA

CITY           SKY/WX    TMP DP  RH WIND       PRES   REMARKS
GARY*          PTCLDY    73  64  73 SE7       30.12F
MICHIGAN CITY* NOT AVBL
RENSSELAER*    NOT AVBL
VALPARAISO     MOCLDY    70  62  76 SE7       30.15F
$$

LMZ740>746-240400-
SOUTHERN LAKE MICHIGAN

STATION/POSITION TIME  SKY/WX   TEMP WIND        PRES    VSBY
                                AIR  DIR/SP/G
                 (UTC)          (F)  (DEG/KT/KT) (MB)    (MI)
HARRISON CRIB    0200            74  170/ 17/ 18   N/A
BURNHAM HARBOR   0300            73  160/  6/ 11   N/A
CALUMET HARBOR   0200            76  150/  8/ 14 1019.5F
BURNS HARBOR     0200            74  170/  7/ 14 1021.0S
MICHIGAN CITY    0200            74  140/  7/  9   N/A
$$

ABBREVIATIONS USED IN REMARKS
   TC - TEMPERATURE IN CELSIUS
  WCI - WIND CHILL INDEX
   HX - HEAT INDEX
  VSB - VISIBILITY
$$




USA.gov is the U.S. government's official web portal to all federal, state and local government web resources and services.